User: anonymous   Login
Location: NJAA Observatory
(40.6819°N, 74.8979°W)
Time: 16:24:19
(UTC-04:00)
Language:

Meteor 1-28 Rocket - Orbit

View from above orbital plane
View from above orbital plane
View from above satellite
View from above satellite

Ground track
Ground track

The orbit data is extracted from the following two-line orbital elements,

1 10114U 77057B   15213.85095843  .00001226  00000-0  68038-4 0  9997
2 10114 097.2252 059.5993 0014204 186.1890 173.9170 15.15440591 79706
Epoch (UTC): 01 August 2015 20:25:22
Eccentricity: 0.0014204
inclination: 97.2252°
perigee height: 510 km
apogee height: 529 km
right ascension of ascending node: 59.5993°
argument of perigee: 186.1890°
revolutions per day: 15.15440591
mean anomaly at epoch: 173.9170°
orbit number at epoch: 7970

The dashed part of the orbit path shows where the satellite is in the earth's shadow,  

DLR